STARLINK-32235, 60739

Orbit data source: Space-Track

STARLINK-32235, 60739 is a payload satellite owned by SpaceX/Seattle (US) in LEO that was launched on Wed, 28 Aug 2024 UTC via an FALCON 9 launch vehicle from the Air Force Eastern Test Range (AFETR). Payload-class satellites include a variety of spacecraft equipped with specific instruments for various scientific and technological missions. These include communications satellites like Starlink; space stations such as the ISS; scientific satellites like the Hubble; Earth observation satellites from companies like Planet Labs, Umbra, and HawkEye 360; GPS; miniature CubeSats for education and research; and military/defense satellites.

Loading next visibility...
Identifier
60739, 2024-152V
Orbit
LEO
Country
Flag of USUS
Related business
Manufacturer
SpaceX/Seattle
Mission
Operational Commercial Communications
Bus & Motor
STARLINK V2M, Unknown motor
Mass
730 kg wet, ~700 kg dry
Launch date (UTC)
2024-08-28 (2 years ago)
Launch vehicle
FALCON 9
Launch site
Air Force Eastern Test Range (AFETR)
Object type
Payload
Rocket body
Debris
Shape & HBR
Box + 2 Pan, 17.7 m
Radar Cross Section
33.884 m², Large (>1 m²)

Expand to show TLE details & history
Last TLE update: 8 hours ago

TLE from 8 hours ago
0 STARLINK-32235
1 60739U 24152V   26112.15881244 -.00000275  00000-0  28443-5 0  9995
2 60739  53.1615  66.6969 0000908  75.7086 284.4015 15.30190544 93457
Epoch: 2026-04-22T03:48Z
TLE epoch observation values (Epoch: 2026-04-22T03:48:41.394Z)
Latitude
-0.00008°
Longitude
159.30011°
Altitude
475.988 km
Speed
7.629 km/s
True Right ascension
04h 26m 47s
True Declination
0° 00' 00"
Sunlit
Object was in daylight at epoch
Visualization orbit readout
Latitude
Unknown
Longitude
Unknown
Altitude
Unknown
Speed
Unknown
Apparent Right ascension
Unknown
Apparent Declination
Unknown
Sunlit
N/A
Visualization observer readout
Local Sidereal Time
19:08:02
Azimuth
Unknown
Elevation
Unknown
Doppler factor
Unknown
Orbital elements
Apogee altitude
476.122 km
Perigee altitude
474.877 km
Semi-major axis
6,853.636 km
Eccentricity
0.00009
Inclination
53.1615°
RAAN
66.6969°
Arg. of periapsis
75.7086°
True anomaly
284.39142°
Mean anomaly
284.4015°
Eccentric anomaly
284.39646°
Mean motion
3.82527 °/min
Orbital period
94.11 mins
BSTAR
0.0000028443
Loading maneuver chart data...
Computing Atmospheric mass density...
Loading historical data...
Loading historical data...
Loading historical data...
Loading historical data...
Loading historical data...
Loading historical data...
Loading historical data...

Documentation

Showing up to 5 results
|